STARLINK-1960 (47561 NORAD) Tracking and Keplerian Element Data

This shows tracking and keplerian element data for the satellite.

Feedback or suggestion? Click here.




ElementValue
Catalog47561
NameSTARLINK-1960
Epoch Orbit1174
Epoch Day106.25002315
Epoch Year2021
RAAN136.8782
Inclination53.0517
Eccentricity0.0002176
Argument of Perigee295.6702
Mean Anonmoly330.7533
Mean Motion15.50814597
Decay Rate-0.00473795
L11 47561U 21009P 21106.25002315 -.00473795 00000-0 -85640-2 0 9995
L22 47561 53.0517 136.8782 0002176 295.6702 330.7533 15.50814597 11740

Live tracking and technical data element details for STARLINK-1960 (NORAD 47561). STARLINK-1960 can be tracked NOW for your location showing map with azimuth and elevation plus other details from your city location.

Track the satellite on the map from your city or location and see movement details for azimuth, elevation, latitude, longitude, range, height, and movement on the map or in text.







IsCatalogInMostPopularTable: catalog: 47561, numindb: 15
Update: records affected: 1



GetName: 47561 STARLINK-1960

Hit Count: updated at: Fri, 16 Apr 2021 11:15:29 GMT